Year,Month,Day,Hour,Minute,Value (Times are PST for windgust in km/hr)
2017,06,05,00,00,6.40
2017,06,05,00,01,8.10
2017,06,05,00,02,8.10
2017,06,05,00,03,1.60
2017,06,05,00,04,8.10
2017,06,05,00,05,4.80
2017,06,05,00,06,3.20
2017,06,05,00,17,8.10
2017,06,05,00,18,6.40
2017,06,05,00,19,6.40
2017,06,05,00,20,6.40
2017,06,05,00,21,4.80
2017,06,05,00,22,6.40
2017,06,05,00,23,8.10
2017,06,05,00,24,6.40
2017,06,05,00,25,4.80
2017,06,05,00,26,6.40
2017,06,05,00,31,4.80
2017,06,05,00,32,8.10
2017,06,05,00,33,4.80
2017,06,05,00,34,4.80
2017,06,05,00,35,6.40
2017,06,05,00,36,6.40
2017,06,05,00,37,6.40
2017,06,05,00,38,4.80
2017,06,05,00,39,4.80
2017,06,05,00,40,6.40
2017,06,05,00,41,4.80
2017,06,05,00,42,4.80
2017,06,05,00,44,6.40
2017,06,05,00,45,3.20
2017,06,05,00,46,6.40
2017,06,05,00,47,6.40
2017,06,05,00,48,4.80
2017,06,05,00,49,4.80
2017,06,05,00,54,4.80
2017,06,05,00,55,4.80
2017,06,05,00,56,4.80
2017,06,05,01,16,4.80
2017,06,05,01,17,4.80
2017,06,05,01,18,4.80
2017,06,05,01,19,4.80
2017,06,05,01,20,4.80
2017,06,05,01,46,4.80
2017,06,05,01,48,4.80
2017,06,05,01,49,6.40
2017,06,05,02,13,1.60
2017,06,05,08,13,3.20
2017,06,05,08,37,1.60
2017,06,05,08,54,1.60
2017,06,05,08,59,4.80
2017,06,05,09,00,4.80
2017,06,05,09,01,1.60
2017,06,05,09,13,3.20
2017,06,05,09,14,3.20
2017,06,05,09,15,3.20
2017,06,05,09,17,1.60
2017,06,05,09,20,1.60
2017,06,05,09,42,3.20
2017,06,05,09,43,6.40
2017,06,05,09,44,6.40
2017,06,05,09,45,1.60
2017,06,05,09,46,3.20
2017,06,05,09,50,1.60
2017,06,05,09,54,3.20
2017,06,05,10,08,6.40
2017,06,05,10,16,1.60
2017,06,05,10,27,1.60
2017,06,05,10,28,1.60
2017,06,05,10,31,1.60
2017,06,05,10,35,1.60
2017,06,05,10,36,3.20
2017,06,05,10,37,3.20
2017,06,05,10,39,8.10
2017,06,05,10,40,1.60
2017,06,05,10,42,6.40
2017,06,05,10,51,1.60
2017,06,05,10,52,1.60
2017,06,05,10,54,4.80
2017,06,05,10,55,4.80
2017,06,05,10,56,4.80
2017,06,05,10,59,4.80
2017,06,05,11,00,3.20
2017,06,05,11,01,3.20
2017,06,05,11,02,1.60
2017,06,05,11,03,3.20
2017,06,05,11,04,1.60
2017,06,05,11,12,3.20
2017,06,05,11,13,1.60
2017,06,05,11,16,6.40
2017,06,05,11,17,3.20
2017,06,05,11,20,8.10
2017,06,05,11,21,8.10
2017,06,05,11,23,6.40
2017,06,05,11,25,3.20
2017,06,05,11,27,6.40
2017,06,05,11,28,9.60
2017,06,05,11,29,12.90
2017,06,05,11,30,6.40
2017,06,05,11,31,14.50
2017,06,05,11,32,16.10
2017,06,05,11,33,6.40
2017,06,05,11,34,9.60
2017,06,05,11,35,11.30
2017,06,05,11,36,11.30
2017,06,05,11,37,11.30
2017,06,05,11,38,9.60
2017,06,05,11,39,16.10
2017,06,05,11,40,16.10
2017,06,05,11,41,16.10
2017,06,05,11,42,16.10
2017,06,05,11,43,11.30
2017,06,05,11,44,11.30
2017,06,05,11,45,16.10
2017,06,05,11,46,19.30
2017,06,05,11,47,14.50
2017,06,05,11,48,14.50
2017,06,05,11,49,9.60
2017,06,05,11,50,14.50
2017,06,05,11,51,11.30
2017,06,05,11,52,12.90
2017,06,05,11,53,8.10
2017,06,05,11,54,9.60
2017,06,05,11,55,11.30
2017,06,05,11,56,11.30
2017,06,05,11,57,11.30
2017,06,05,11,58,9.60
2017,06,05,11,59,8.10
2017,06,05,12,00,11.30
2017,06,05,12,01,8.10
2017,06,05,12,02,9.60
2017,06,05,12,03,9.60
2017,06,05,12,04,9.60
2017,06,05,12,05,11.30
2017,06,05,12,06,14.50
2017,06,05,12,07,14.50
2017,06,05,12,08,8.10
2017,06,05,12,09,17.70
2017,06,05,12,10,16.10
2017,06,05,12,11,11.30
2017,06,05,12,12,14.50
2017,06,05,12,13,14.50
2017,06,05,12,14,6.40
2017,06,05,12,15,11.30
2017,06,05,12,16,11.30
2017,06,05,12,17,9.60
2017,06,05,12,18,8.10
2017,06,05,12,19,16.10
2017,06,05,12,20,11.30
2017,06,05,12,21,16.10
2017,06,05,12,22,11.30
2017,06,05,12,23,11.30
2017,06,05,12,24,9.60
2017,06,05,12,25,6.40
2017,06,05,12,26,6.40
2017,06,05,12,27,8.10
2017,06,05,12,28,11.30
2017,06,05,12,29,14.50
2017,06,05,12,30,17.70
2017,06,05,12,31,17.70
2017,06,05,12,32,12.90
2017,06,05,12,33,11.30
2017,06,05,12,34,6.40
2017,06,05,12,35,9.60
2017,06,05,12,36,14.50
2017,06,05,12,37,11.30
2017,06,05,12,38,8.10
2017,06,05,12,39,11.30
2017,06,05,12,40,9.60
2017,06,05,12,41,6.40
2017,06,05,12,42,4.80
2017,06,05,12,43,12.90
2017,06,05,12,44,9.60
2017,06,05,12,45,6.40
2017,06,05,12,46,9.60
2017,06,05,12,47,16.10
2017,06,05,12,48,16.10
2017,06,05,12,49,16.10
2017,06,05,12,50,9.60
2017,06,05,12,51,9.60
2017,06,05,12,52,9.60
2017,06,05,12,53,9.60
2017,06,05,12,54,9.60
2017,06,05,12,55,11.30
2017,06,05,12,56,9.60
2017,06,05,12,57,4.80
2017,06,05,12,58,16.10
2017,06,05,12,59,11.30
2017,06,05,13,00,8.10
2017,06,05,13,01,14.50
2017,06,05,13,02,11.30
2017,06,05,13,03,9.60
2017,06,05,13,04,14.50
2017,06,05,13,05,6.40
2017,06,05,13,06,16.10
2017,06,05,13,07,16.10
2017,06,05,13,08,11.30
2017,06,05,13,09,12.90
2017,06,05,13,10,12.90
2017,06,05,13,11,11.30
2017,06,05,13,12,11.30
2017,06,05,13,13,14.50
2017,06,05,13,14,12.90
2017,06,05,13,15,14.50
2017,06,05,13,16,11.30
2017,06,05,13,17,9.60
2017,06,05,13,18,9.60
2017,06,05,13,19,9.60
2017,06,05,13,20,9.60
2017,06,05,13,21,8.10
2017,06,05,13,22,9.60
2017,06,05,13,23,16.10
2017,06,05,13,24,9.60
2017,06,05,13,25,11.30
2017,06,05,13,26,12.90
2017,06,05,13,27,11.30
2017,06,05,13,28,9.60
2017,06,05,13,29,11.30
2017,06,05,13,30,11.30
2017,06,05,13,31,11.30
2017,06,05,13,32,9.60
2017,06,05,13,33,9.60
2017,06,05,13,34,9.60
2017,06,05,13,35,6.40
2017,06,05,13,36,6.40
2017,06,05,13,37,9.60
2017,06,05,13,38,8.10
2017,06,05,13,39,8.10
2017,06,05,13,40,11.30
2017,06,05,13,41,8.10
2017,06,05,13,42,9.60
2017,06,05,13,43,6.40
2017,06,05,13,44,9.60
2017,06,05,13,45,8.10
2017,06,05,13,46,4.80
2017,06,05,13,47,8.10
2017,06,05,13,48,8.10
2017,06,05,13,49,11.30
2017,06,05,13,50,11.30
2017,06,05,13,51,11.30
2017,06,05,13,52,9.60
2017,06,05,13,53,11.30
2017,06,05,13,54,11.30
2017,06,05,13,55,11.30
2017,06,05,13,56,11.30
2017,06,05,13,57,9.60
2017,06,05,13,58,4.80
2017,06,05,13,59,3.20
2017,06,05,14,00,8.10
2017,06,05,14,01,9.60
2017,06,05,14,02,6.40
2017,06,05,14,03,6.40
2017,06,05,14,04,11.30
2017,06,05,14,05,6.40
2017,06,05,14,06,9.60
2017,06,05,14,07,11.30
2017,06,05,14,08,6.40
2017,06,05,14,09,9.60
2017,06,05,14,10,4.80
2017,06,05,14,11,9.60
2017,06,05,14,12,11.30
2017,06,05,14,13,9.60
2017,06,05,14,14,9.60
2017,06,05,14,15,9.60
2017,06,05,14,16,8.10
2017,06,05,14,17,9.60
2017,06,05,14,18,8.10
2017,06,05,14,19,11.30
2017,06,05,14,20,9.60
2017,06,05,14,21,8.10
2017,06,05,14,22,9.60
2017,06,05,14,23,6.40
2017,06,05,14,24,6.40
2017,06,05,14,25,8.10
2017,06,05,14,26,11.30
2017,06,05,14,27,9.60
2017,06,05,14,28,11.30
2017,06,05,14,29,11.30
2017,06,05,14,30,9.60
2017,06,05,14,31,8.10
2017,06,05,14,32,8.10
2017,06,05,14,33,4.80
2017,06,05,14,34,9.60
2017,06,05,14,35,6.40
2017,06,05,14,36,4.80
2017,06,05,14,37,8.10
2017,06,05,14,38,9.60
2017,06,05,14,39,6.40
2017,06,05,14,40,8.10
2017,06,05,14,41,6.40
2017,06,05,14,42,9.60
2017,06,05,14,43,9.60
2017,06,05,14,44,6.40
2017,06,05,14,46,4.80
2017,06,05,14,47,6.40
2017,06,05,14,48,3.20
2017,06,05,14,49,3.20
2017,06,05,14,50,1.60
2017,06,05,14,53,8.10
2017,06,05,14,54,6.40
2017,06,05,14,55,3.20
2017,06,05,14,56,6.40
2017,06,05,14,57,6.40
2017,06,05,14,58,6.40
2017,06,05,14,59,8.10
2017,06,05,15,00,3.20
2017,06,05,15,01,6.40
2017,06,05,15,02,8.10
2017,06,05,15,03,11.30
2017,06,05,15,04,11.30
2017,06,05,15,05,8.10
2017,06,05,15,06,4.80
2017,06,05,15,07,8.10
2017,06,05,15,08,8.10
2017,06,05,15,09,9.60
2017,06,05,15,10,6.40
2017,06,05,15,11,9.60
2017,06,05,15,12,9.60
2017,06,05,15,13,9.60
2017,06,05,15,14,11.30
2017,06,05,15,15,14.50
2017,06,05,15,16,9.60
2017,06,05,15,17,8.10
2017,06,05,15,18,9.60
2017,06,05,15,19,8.10
2017,06,05,15,20,8.10
2017,06,05,15,21,9.60
2017,06,05,15,22,6.40
2017,06,05,15,23,14.50
2017,06,05,15,24,9.60
2017,06,05,15,25,9.60
2017,06,05,15,26,9.60
2017,06,05,15,27,8.10
2017,06,05,15,28,11.30
2017,06,05,15,29,11.30
2017,06,05,15,30,11.30
2017,06,05,15,31,11.30
2017,06,05,15,32,11.30
2017,06,05,15,33,11.30
2017,06,05,15,34,12.90
2017,06,05,15,35,14.50
2017,06,05,15,36,12.90
2017,06,05,15,37,12.90
2017,06,05,15,38,14.50
2017,06,05,15,39,8.10
2017,06,05,15,40,11.30
2017,06,05,15,41,11.30
2017,06,05,15,42,12.90
2017,06,05,15,43,12.90
2017,06,05,15,44,12.90
2017,06,05,15,45,9.60
2017,06,05,15,46,14.50
2017,06,05,15,47,11.30
2017,06,05,15,48,16.10
2017,06,05,15,49,16.10
2017,06,05,15,50,17.70
2017,06,05,15,51,11.30
2017,06,05,15,52,17.70
2017,06,05,15,53,11.30
2017,06,05,15,54,14.50
2017,06,05,15,55,11.30
2017,06,05,15,56,12.90
2017,06,05,15,57,11.30
2017,06,05,15,58,11.30
2017,06,05,15,59,11.30
2017,06,05,16,00,12.90
2017,06,05,16,01,14.50
2017,06,05,16,02,12.90
2017,06,05,16,03,9.60
2017,06,05,16,04,11.30
2017,06,05,16,05,9.60
2017,06,05,16,06,9.60
2017,06,05,16,07,9.60
2017,06,05,16,08,9.60
2017,06,05,16,09,11.30
2017,06,05,16,10,9.60
2017,06,05,16,11,9.60
2017,06,05,16,12,11.30
2017,06,05,16,13,11.30
2017,06,05,16,14,12.90
2017,06,05,16,15,14.50
2017,06,05,16,16,9.60
2017,06,05,16,17,11.30
2017,06,05,16,18,11.30
2017,06,05,16,19,11.30
2017,06,05,16,20,14.50
2017,06,05,16,21,11.30
2017,06,05,16,22,14.50
2017,06,05,16,23,14.50
2017,06,05,16,24,11.30
2017,06,05,16,25,11.30
2017,06,05,16,26,14.50
2017,06,05,16,27,16.10
2017,06,05,16,28,16.10
2017,06,05,16,29,17.70
2017,06,05,16,30,17.70
2017,06,05,16,31,11.30
2017,06,05,16,32,11.30
2017,06,05,16,33,9.60
2017,06,05,16,34,14.50
2017,06,05,16,35,14.50
2017,06,05,16,36,14.50
2017,06,05,16,37,14.50
2017,06,05,16,38,9.60
2017,06,05,16,39,8.10
2017,06,05,16,40,16.10
2017,06,05,16,41,14.50
2017,06,05,16,42,14.50
2017,06,05,16,43,12.90
2017,06,05,16,44,11.30
2017,06,05,16,45,11.30
2017,06,05,16,46,11.30
2017,06,05,16,47,11.30
2017,06,05,16,48,9.60
2017,06,05,16,49,8.10
2017,06,05,16,50,12.90
2017,06,05,16,51,11.30
2017,06,05,16,52,11.30
2017,06,05,16,53,9.60
2017,06,05,16,54,9.60
2017,06,05,16,55,9.60
2017,06,05,16,56,9.60
2017,06,05,16,57,8.10
2017,06,05,16,58,16.10
2017,06,05,16,59,14.50
2017,06,05,17,00,11.30
2017,06,05,17,01,14.50
2017,06,05,17,02,8.10
2017,06,05,17,03,11.30
2017,06,05,17,04,11.30
2017,06,05,17,05,14.50
2017,06,05,17,06,14.50
2017,06,05,17,07,9.60
2017,06,05,17,08,9.60
2017,06,05,17,09,8.10
2017,06,05,17,10,9.60
2017,06,05,17,11,9.60
2017,06,05,17,12,14.50
2017,06,05,17,13,11.30
2017,06,05,17,14,11.30
2017,06,05,17,15,8.10
2017,06,05,17,16,8.10
2017,06,05,17,17,11.30
2017,06,05,17,18,9.60
2017,06,05,17,19,9.60
2017,06,05,17,20,9.60
2017,06,05,17,21,11.30
2017,06,05,17,22,11.30
2017,06,05,17,23,9.60
2017,06,05,17,24,9.60
2017,06,05,17,25,9.60
2017,06,05,17,26,9.60
2017,06,05,17,27,8.10
2017,06,05,17,28,11.30
2017,06,05,17,29,14.50
2017,06,05,17,30,9.60
2017,06,05,17,31,11.30
2017,06,05,17,32,9.60
2017,06,05,17,33,8.10
2017,06,05,17,34,8.10
2017,06,05,17,35,12.90
2017,06,05,17,36,12.90
2017,06,05,17,37,11.30
2017,06,05,17,38,6.40
2017,06,05,17,39,6.40
2017,06,05,17,40,6.40
2017,06,05,17,41,9.60
2017,06,05,17,42,6.40
2017,06,05,17,43,6.40
2017,06,05,17,44,9.60
2017,06,05,17,45,4.80
2017,06,05,17,46,6.40
2017,06,05,17,47,6.40
2017,06,05,17,48,11.30
2017,06,05,17,49,9.60
2017,06,05,17,50,8.10
2017,06,05,17,51,9.60
2017,06,05,17,52,11.30
2017,06,05,17,53,16.10
2017,06,05,17,54,9.60
2017,06,05,17,55,9.60
2017,06,05,17,56,6.40
2017,06,05,17,57,8.10
2017,06,05,17,58,8.10
2017,06,05,17,59,11.30
2017,06,05,18,00,16.10
2017,06,05,18,01,11.30
2017,06,05,18,02,8.10
2017,06,05,18,03,6.40
2017,06,05,18,04,8.10
2017,06,05,18,05,11.30
2017,06,05,18,06,14.50
2017,06,05,18,07,12.90
2017,06,05,18,08,9.60
2017,06,05,18,09,8.10
2017,06,05,18,10,8.10
2017,06,05,18,11,11.30
2017,06,05,18,12,8.10
2017,06,05,18,13,11.30
2017,06,05,18,14,11.30
2017,06,05,18,15,9.60
2017,06,05,18,16,9.60
2017,06,05,18,17,9.60
2017,06,05,18,18,8.10
2017,06,05,18,19,9.60
2017,06,05,18,20,12.90
2017,06,05,18,21,14.50
2017,06,05,18,22,12.90
2017,06,05,18,23,12.90
2017,06,05,18,24,16.10
2017,06,05,18,25,14.50
2017,06,05,18,26,11.30
2017,06,05,18,27,9.60
2017,06,05,18,28,12.90
2017,06,05,18,29,12.90
2017,06,05,18,30,12.90
2017,06,05,18,31,9.60
2017,06,05,18,32,16.10
2017,06,05,18,33,14.50
2017,06,05,18,34,12.90
2017,06,05,18,35,11.30
2017,06,05,18,36,12.90
2017,06,05,18,37,11.30
2017,06,05,18,38,11.30
2017,06,05,18,39,14.50
2017,06,05,18,40,16.10
2017,06,05,18,41,17.70
2017,06,05,18,42,14.50
2017,06,05,18,43,11.30
2017,06,05,18,44,11.30
2017,06,05,18,45,14.50
2017,06,05,18,46,9.60
2017,06,05,18,47,11.30
2017,06,05,18,48,11.30
2017,06,05,18,49,11.30
2017,06,05,18,50,11.30
2017,06,05,18,51,14.50
2017,06,05,18,52,8.10
2017,06,05,18,53,9.60
2017,06,05,18,54,8.10
2017,06,05,18,55,9.60
2017,06,05,18,56,9.60
2017,06,05,18,57,9.60
2017,06,05,18,58,9.60
2017,06,05,18,59,11.30
2017,06,05,19,00,14.50
2017,06,05,19,01,9.60
2017,06,05,19,02,11.30
2017,06,05,19,03,14.50
2017,06,05,19,04,14.50
2017,06,05,19,05,12.90
2017,06,05,19,06,14.50
2017,06,05,19,07,11.30
2017,06,05,19,08,11.30
2017,06,05,19,09,9.60
2017,06,05,19,10,9.60
2017,06,05,19,11,11.30
2017,06,05,19,12,9.60
2017,06,05,19,13,9.60
2017,06,05,19,14,6.40
2017,06,05,19,15,12.90
2017,06,05,19,16,11.30
2017,06,05,19,17,9.60
2017,06,05,19,18,9.60
2017,06,05,19,19,11.30
2017,06,05,19,20,6.40
2017,06,05,19,21,6.40
2017,06,05,19,22,6.40
2017,06,05,19,23,11.30
2017,06,05,19,24,9.60
2017,06,05,19,25,6.40
2017,06,05,19,26,14.50
2017,06,05,19,27,16.10
2017,06,05,19,28,14.50
2017,06,05,19,29,14.50
2017,06,05,19,30,9.60
2017,06,05,19,31,9.60
2017,06,05,19,32,6.40
2017,06,05,19,33,8.10
2017,06,05,19,34,9.60
2017,06,05,19,35,11.30
2017,06,05,19,36,9.60
2017,06,05,19,37,11.30
2017,06,05,19,38,9.60
2017,06,05,19,39,11.30
2017,06,05,19,40,9.60
2017,06,05,19,41,6.40
2017,06,05,19,42,11.30
2017,06,05,19,43,8.10
2017,06,05,19,44,9.60
2017,06,05,19,45,11.30
2017,06,05,19,46,4.80
2017,06,05,19,47,6.40
2017,06,05,19,48,6.40
2017,06,05,19,49,9.60
2017,06,05,19,50,8.10
2017,06,05,19,51,11.30
2017,06,05,19,52,8.10
2017,06,05,19,53,4.80
2017,06,05,19,54,6.40
2017,06,05,19,55,9.60
2017,06,05,19,56,9.60
2017,06,05,19,57,8.10
2017,06,05,19,58,8.10
2017,06,05,19,59,6.40
2017,06,05,20,00,6.40
2017,06,05,20,01,4.80
2017,06,05,20,02,8.10
2017,06,05,20,03,4.80
2017,06,05,20,04,9.60
2017,06,05,20,05,6.40
2017,06,05,20,06,6.40
2017,06,05,20,07,6.40
2017,06,05,20,08,6.40
2017,06,05,20,09,9.60
2017,06,05,20,10,9.60
2017,06,05,20,11,8.10
2017,06,05,20,12,9.60
2017,06,05,20,13,6.40
2017,06,05,20,14,6.40
2017,06,05,20,15,8.10
2017,06,05,20,16,8.10
2017,06,05,20,17,8.10
2017,06,05,20,18,6.40
2017,06,05,20,19,6.40
2017,06,05,20,20,9.60
2017,06,05,20,21,8.10
2017,06,05,20,22,6.40
2017,06,05,20,23,8.10
2017,06,05,20,24,8.10
2017,06,05,20,25,4.80
2017,06,05,20,26,4.80
2017,06,05,20,27,4.80
2017,06,05,20,28,6.40
2017,06,05,20,29,6.40
2017,06,05,20,30,8.10
2017,06,05,20,31,8.10
2017,06,05,20,32,8.10
2017,06,05,20,33,8.10
2017,06,05,20,34,4.80
2017,06,05,20,35,4.80
2017,06,05,20,36,3.20
2017,06,05,20,37,6.40
2017,06,05,20,38,6.40
2017,06,05,20,39,6.40
2017,06,05,20,40,6.40
2017,06,05,20,41,6.40
2017,06,05,20,42,4.80
2017,06,05,20,43,4.80
2017,06,05,20,44,6.40
2017,06,05,20,45,6.40
2017,06,05,20,46,6.40
2017,06,05,20,47,3.20
2017,06,05,20,48,6.40
2017,06,05,20,49,4.80
2017,06,05,20,50,3.20
2017,06,05,20,51,6.40
2017,06,05,20,52,4.80
2017,06,05,20,53,3.20
2017,06,05,20,54,4.80
2017,06,05,20,55,4.80
2017,06,05,20,56,4.80
2017,06,05,20,57,4.80
2017,06,05,20,58,6.40
2017,06,05,20,59,4.80
2017,06,05,21,00,3.20
2017,06,05,21,01,4.80
2017,06,05,21,02,3.20
2017,06,05,21,03,3.20
2017,06,05,21,04,3.20
2017,06,05,21,05,4.80
2017,06,05,21,06,4.80
2017,06,05,21,07,3.20
2017,06,05,21,08,4.80
2017,06,05,21,09,3.20
2017,06,05,21,10,4.80
2017,06,05,21,11,3.20
2017,06,05,21,12,1.60
2017,06,05,21,13,1.60
